SCP
0 0 0 0 0 0 0 0 0 0 0 0 0 0 0 0 0 0 0 0 0 0 -0 0 0 0 0 0 0 0 0 0 0 0 0 0 0 0 0 0 0 0 0
0 0 0 0 0 0 0 0 0 0 0 0 0 0 0 0 0 0 0 0 0 0 0 0 0 0 0 0 0 0 0 0 0 0 0 0 0 0 0 0 0 0 0
0 0 0 0 0 0 0 0 0 0 0 0 0 0 0 0 0 0 0 0 0 0 0 0 0 0 0 0 0 0 0 0 0 0 0 0 -0 0 0 0 0 0 -0
0 0 0 0 0 0 0 0 0 0 0 0 0 0 0 0 0 0 0 0 0 0 0 0 0 0 0 0 0 0 0 0 0 0 -0 -0 -0 0 0 0 0 0 -0
0 0 0 0 0 0 0 0 0 0 0 0 0 0 0 0 0 0 0 0 0 0 0 0 0 0 0 0 0 0 0 0 0 -0 -0 -0 0 0 0 0 0 -0 -0
0 0 0 0 0 0 0 0 0 0 0 0 0 0 0 0 0 0 0 0 0 0 0 0 0 0 0 0 0 0 -0 0 0 -0 -0 -0 0 0 0 0 -0 -0 -0
0 0 0 0 0 0 0 0 0 0 0 0 0 0 0 0 0 0 0 0 0 0 0 0 0 0 0 0 0 -0 0 0 0 -0 -0 -0 -0 0 0 -0 -0 -0 -0
0 -0 -0 -0 0 0 0 0 0 0 0 0 0 0 0 0 0 0 0 0 0 0 0 0 0 0 0 0 0 0 0 0 -0 -0 -0 -0 -0 -0 -0 -0 -0 -0 -0
-0 -0 -0 0 -0 0 0 0 0 0 0 0 0 0 0 0 0 0 0 0 0 0 0 0 0 0 0 0 0 0 0 -0 0 -0 -0 -0 -0 -0 -0 -0 -0 -0 -0
-0 -0 -0 0 0 0 0 0 0 0 0 0 0 0 0 0 0 0 0 0 0 0 0 0 0 0 0 0 0 0 -0 0 0 -0 -0 -0 -0 -0 -0 -0 -0 -0 -0
-0 -0 0 0 0 0 0 0 0 0 0 0 0 0 0 0 0 0 0 0 0 0 0 0 0 0 0 0 0 0 0 -0 -0 -0 -0 -0 -0 -0 -0 -0 -0 -0 -0
0 0 0 0 0 0 0 0 0 0 0 0 0 0 0 0 0 0 0 0 0 0 0 0 0 0 0 0 0 0 -0 -0 -0 -0 -0 -0 -0 0 -0 -0 -0 0 0
0 0 0 0 0 0 0 0 -0 0 0 0 0 0 0 0 0 0 0 0 0 0 0 0 0 0 0 0 0 0 -0 -0 0 -0 -0 -0 -0 -0 0 0 0 0 0
0 0 0 0 0 0 0 0 -0 -0 0 0 0 0 0 0 0 0 0 0 0 0 0 0 0 0 0 0 0 0 0 0 0 0 0 -0 -0 0 0 0 0 0 0
0 0 0 0 0 0 0 0 0 -0 0 0 0 0 0 0 0 0 0 0 0 0 0 0 0 0 0 0 0 0 0 0 0 0 0 0 0 0 0 0 0 0 0
0 0 0 0 0 0 0 0 -0 0 0 0 0 0 0 0 -0 -0 0 0 0 0 0 0 0 0 0 0 0 0 0 0 0 0 0 0 0 0 0 0 0 0 0
0 0 0 0 0 0 0 0 0 0 0 0 0 0 0 -0 0 0 0 0 0 0 0 0 0 0 0 0 0 0 0 0 0 0 0 0 0 0 0 0 0 0 0
0 0 0 0 0 0 0 0 0 0 0 0 0 -0 -0 0 0 0 0 0 0 0 0 0 0 0 0 0 0 0 0 0 0 0 0 0 0 0 0 0 0 0 0
0 -0 -0 -0 0 0 0 0 0 0 0 0 0 0 0 0 -0 0 0 0 0 0 0 -0 -0 0 0 0 0 0 0 0 0 0 0 0 0 0 0 0 0 0 0
0 -0 -0 -0 -0 0 0 0 0 0 0 0 0 0 0 -0 0 0 0 0 0 0 -0 -0 0 0 0 0 0 0 0 0 0 0 0 0 0 0 0 0 0 0 0
-0 0 -0 -0 -0 0 0 0 0 -0 -0 -0 0 0 -0 -0 -0 0 0 0 -0 -0 -0 0 0 0 0 0 0 0 0 0 0 0 0 0 0 0 0 0 0 0 0
-0 -0 -0 -0 -0 0 0 -0 -0 -0 -0 -0 -0 0 0 -0 -0 -0 -0 -0 -0 -0 0 0 0 0 0 0 0 0 0 0 0 0 0 0 0 0 0 0 0 0 0
-0 -0 0 -0 -0 0 0 -0 -0 0 0 0 0 0 -0 -0 -0 -0 -0 -0 -0 -0 -0 0 0 0 0 0 0 0 0 0 0 0 0 0 0 0 0 0 0 0 0
0 -0 0 0 -0 -0 -0 -0 -0 -0 -0 -0 0 0 -0 -0 -0 -0 -0 -0 -0 -0 0 0 0 0 0 0 0 0 0 0 0 0 0 0 0 0 0 0 0 0 0
-0 -0 -0 -0 -0 -0 -0 -0 -0 -0 0 0 0 -0 -0 -0 -0 -0 -0 -0 -0 -0 -0 -0 -0 -0 -0 0 0 0 0 0 0 0 0 0 0 0 0 0 0 0 0
0 0 -0 -0 -0 -0 -0 -0 -0 0 0 0 0 -0 -0 -0 -0 -0 -0 -0 -0 0 0 0 0 0 0 0 0 0 0 0 0 0 0 0 0 0 0 0 0 0 0
Wind_Speed_500mb
35 31 28 24 23 25 24 25 29 32 35 36 36 35 36 51 52 60 55 34 16 17 13 26 31 31 31 26 11 14 10 9 11 17 22 20 20 19 13 9 10 21 23
33 28 24 20 19 24 23 26 31 33 35 48 43 44 45 56 53 51 43 36 40 45 31 34 38 33 37 23 21 14 12 10 13 16 21 17 15 10 8 14 21 22 28
28 23 17 14 17 18 23 26 29 32 35 40 51 58 55 51 50 42 37 38 41 45 41 40 41 37 39 27 22 16 11 12 15 17 20 14 7 8 13 16 17 27 23
20 15 13 9 11 17 17 29 22 27 34 43 45 56 50 40 49 42 44 46 48 41 35 38 41 34 55 38 28 18 12 17 19 20 19 11 6 12 19 24 22 22 27
7 10 7 4 10 17 16 24 27 29 29 36 47 44 42 46 42 50 53 48 41 36 41 38 37 41 44 36 27 21 15 20 21 18 15 3 8 15 18 18 19 24 23
7 7 1 5 10 15 12 16 25 26 35 48 49 47 43 48 59 59 50 40 36 32 30 35 55 47 37 29 17 16 16 17 22 17 9 2 7 13 15 18 19 22 24
5 3 2 3 8 13 15 25 22 25 36 38 55 49 45 41 75 56 48 41 36 29 28 51 29 32 22 21 19 19 18 16 19 13 6 0 13 15 16 16 20 21 20
6 11 4 3 7 4 15 15 23 19 38 42 52 55 39 53 74 67 56 55 44 41 28 28 14 14 13 13 9 20 21 14 16 12 3 7 9 16 16 18 17 17 18
13 6 4 5 8 2 16 13 19 29 20 57 61 49 27 22 70 62 60 49 36 29 27 22 22 18 17 18 20 14 12 17 19 9 5 3 4 13 12 11 15 14 15
12 8 3 4 11 4 3 3 20 23 37 70 67 52 37 75 50 47 43 37 29 24 26 18 17 14 14 15 11 10 12 17 16 12 8 7 2 12 9 9 11 10 13
11 8 5 4 9 15 11 8 3 23 34 63 55 65 62 65 63 59 52 38 29 25 20 18 20 16 9 9 7 10 14 18 19 17 13 10 10 10 6 2 7 7 12
7 6 3 2 3 11 15 8 4 35 46 55 56 45 61 66 58 53 55 48 41 35 28 22 16 7 4 10 11 11 16 16 16 18 15 13 14 18 23 12 8 11 12
4 4 2 0 6 11 16 9 23 17 16 40 41 37 50 48 48 33 53 53 43 36 25 21 16 11 10 13 11 12 15 16 15 14 9 17 22 25 24 19 15 14 16
7 5 3 2 8 12 14 18 16 20 25 30 38 38 25 37 37 40 47 47 34 28 29 24 21 18 12 15 14 10 15 18 12 13 11 18 21 21 23 19 16 16 20
10 7 2 2 4 14 17 13 15 22 25 35 31 22 36 45 38 44 39 48 38 32 31 27 24 25 20 17 16 13 13 12 10 9 12 21 22 22 23 19 18 19 20
9 8 5 2 3 15 17 17 15 16 25 34 37 31 27 30 33 40 40 41 37 13 20 26 28 22 24 21 17 14 13 9 9 11 15 21 22 21 26 24 20 20 24
6 7 8 4 9 19 11 9 15 16 20 23 36 31 26 45 40 30 30 31 45 28 14 23 29 24 23 21 19 15 13 12 12 11 16 14 16 19 23 25 25 24 27
8 9 8 8 10 21 17 22 20 31 38 40 33 36 47 47 36 20 17 21 25 23 11 12 26 26 19 19 16 14 14 14 14 15 18 15 16 19 23 29 29 28 30
5 9 10 14 30 26 19 21 25 33 29 28 39 39 38 33 33 24 24 30 23 12 9 7 14 22 18 16 11 11 12 12 10 12 18 22 21 21 24 30 31 32 31
13 19 23 30 31 24 20 26 30 31 32 34 35 26 29 27 21 27 33 26 17 8 8 7 11 16 15 11 9 7 7 10 14 17 21 20 20 24 27 30 34 33 34
29 29 32 31 26 20 22 27 33 36 47 39 25 26 23 28 19 23 19 21 17 9 19 11 13 17 16 10 7 2 1 6 10 12 16 18 19 24 32 37 42 42 38
36 35 34 28 23 26 28 29 29 36 44 36 31 31 23 20 15 19 10 16 17 19 16 12 13 13 13 10 7 3 3 5 9 11 13 18 22 30 31 29 27 27 27
32 31 29 22 24 22 28 24 27 32 34 30 27 30 28 21 22 18 13 24 26 19 12 8 6 11 9 7 2 1 3 4 7 13 16 17 15 18 17 21 20 19 21
28 25 19 19 19 23 22 26 23 29 32 28 24 27 29 26 19 17 21 27 22 19 15 8 8 9 8 5 2 3 3 4 7 12 12 7 6 13 6 12 17 23 28
25 25 20 20 26 28 29 27 32 33 32 33 33 30 32 25 26 26 24 21 20 13 10 9 6 5 6 6 5 5 4 5 5 9 10 10 10 9 5 11 25 33 33
31 30 30 32 33 32 34 29 28 33 39 44 41 40 35 36 34 28 18 15 13 12 10 7 6 6 7 5 5 5 6 8 11 10 15 20 21 19 3 10 22 24 31
Wind_Direction_500mb
302 298 289 274 255 233 221 226 230 232 204 198 194 192 202 188 171 159 157 170 170 149 166 181 190 183 177 188 174 163 113 99 87 92 94 89 82 94 82 50 28 51 53
300 296 287 270 245 231 219 234 233 224 211 204 209 193 187 174 179 187 205 208 221 234 198 199 195 192 174 177 170 144 117 111 105 96 107 95 111 87 40 356 11 63 57
298 293 283 260 272 218 222 233 238 223 211 205 203 197 200 199 196 189 192 194 182 177 191 204 191 185 175 176 151 129 116 111 109 103 112 113 72 27 8 7 54 64 59
300 288 277 286 301 252 241 226 234 223 209 198 191 192 195 195 193 199 196 179 178 183 195 202 198 184 161 153 139 117 112 116 109 103 124 123 47 358 28 60 69 68 60
313 304 301 289 283 243 249 228 230 218 204 203 190 184 183 191 197 176 174 175 178 189 194 205 208 171 148 140 119 111 105 124 115 124 133 114 355 336 37 68 71 69 63
338 314 299 259 286 253 240 236 225 213 213 201 183 182 186 187 177 173 173 178 184 195 203 200 139 127 120 120 109 83 109 122 127 143 132 82 3 3 56 75 71 63 60
318 216 128 270 336 268 250 226 228 210 198 207 185 173 171 182 183 172 179 169 158 150 155 129 111 118 101 121 105 90 101 115 131 147 135 111 322 38 87 81 73 65 56
350 124 119 349 343 275 236 241 229 193 194 211 186 169 147 153 146 159 164 156 157 154 111 108 147 136 149 139 147 133 130 114 143 148 137 349 22 17 87 79 79 69 63
90 108 94 27 9 248 217 270 195 173 194 191 207 174 144 153 127 128 132 131 135 127 135 123 127 126 135 136 148 150 131 149 150 158 157 35 31 1 88 85 77 61 55
80 68 89 2 23 19 122 154 174 197 175 169 179 183 179 149 137 114 125 135 137 135 128 131 130 132 134 142 149 162 157 157 160 165 190 263 326 327 92 83 65 64 37
70 65 74 312 12 85 108 274 124 201 190 179 180 169 158 150 149 139 134 144 151 150 144 159 148 137 151 179 169 164 165 167 174 185 202 232 302 327 348 113 56 23 9
72 87 74 6 48 94 146 197 123 181 196 185 191 151 173 168 170 170 155 159 161 164 182 177 151 153 259 206 186 160 175 188 187 189 213 260 286 309 299 315 302 337 333
86 117 101 42 40 117 121 192 118 129 159 153 150 171 169 159 162 175 174 159 165 168 159 176 174 191 217 205 188 171 191 197 196 203 267 299 298 299 300 305 296 309 307
146 200 221 134 44 148 120 157 158 148 163 172 170 172 209 216 191 197 177 162 148 168 175 183 196 202 217 218 206 206 211 200 210 223 280 312 310 319 322 301 297 297 303
176 192 188 29 52 149 146 149 159 173 157 166 167 176 188 186 195 177 178 191 184 179 192 198 201 204 218 217 212 216 204 217 243 279 282 305 314 332 325 316 304 296 299
195 204 202 191 110 152 141 125 126 137 197 198 187 185 184 172 163 179 186 192 204 203 196 214 210 207 216 216 213 220 207 238 263 290 293 306 315 330 332 318 315 296 288
217 215 219 203 148 162 150 131 123 125 129 164 161 169 177 163 168 176 189 199 208 215 258 220 209 210 208 216 220 222 229 263 271 290 305 306 319 321 328 326 327 317 299
209 225 213 197 175 149 141 140 113 129 141 145 162 151 156 169 171 172 194 188 187 209 238 214 199 199 195 206 222 237 245 263 267 282 292 295 312 314 327 329 327 323 316
179 194 193 162 149 145 127 116 149 147 143 144 153 150 162 176 182 194 175 181 181 188 138 151 192 190 192 195 223 257 255 259 273 301 315 321 323 327 329 321 317 315 306
130 134 141 140 143 142 136 131 148 151 161 141 151 144 147 163 171 170 172 175 185 156 161 135 161 165 168 194 226 245 269 284 291 308 313 313 309 311 314 308 308 309 308
128 125 127 129 130 135 158 142 143 154 162 157 160 158 151 147 146 170 176 195 191 198 161 137 143 142 139 136 145 129 244 299 308 301 304 306 315 310 310 310 311 314 318
136 132 128 130 137 128 124 146 144 148 164 175 177 173 165 179 195 179 183 151 136 140 138 118 125 143 130 127 122 99 10 347 322 319 318 321 315 306 312 312 306 302 303
144 148 150 143 139 139 136 142 154 161 171 177 191 200 198 185 182 175 172 153 142 144 138 124 140 140 136 123 127 102 279 296 294 288 293 304 300 312 344 2 14 2 343
159 158 156 151 150 155 154 159 160 164 173 173 170 168 179 173 174 174 162 154 151 160 151 134 84 64 58 60 54 7 356 327 322 319 326 338 359 331 352 14 7 359 349
167 159 164 166 160 152 151 142 164 151 160 168 173 168 163 155 150 147 156 161 149 140 131 120 111 96 84 75 55 32 34 15 351 325 352 2 21 1 269 332 350 352 356
171 159 150 148 152 134 131 148 162 157 148 148 148 145 145 147 143 138 138 133 141 147 136 116 125 127 109 84 39 22 9 8 4 340 7 9 20 29 349 1 342 350 356
Wind_Speed_850mb
35 31 28 24 23 25 24 25 29 32 35 36 36 35 36 51 52 60 55 34 16 17 13 26 31 31 31 26 11 14 10 9 11 17 22 20 20 19 13 9 10 21 23
33 28 24 20 19 24 23 26 31 33 35 48 43 44 45 56 53 51 43 36 40 45 31 34 38 33 37 23 21 14 12 10 13 16 21 17 15 10 8 14 21 22 28
28 23 17 14 17 18 23 26 29 32 35 40 51 58 55 51 50 42 37 38 41 45 41 40 41 37 39 27 22 16 11 12 15 17 20 14 7 8 13 16 17 27 23
20 15 13 9 11 17 17 29 22 27 34 43 45 56 50 40 49 42 44 46 48 41 35 38 41 34 55 38 28 18 12 17 19 20 19 11 6 12 19 24 22 22 27
7 10 7 4 10 17 16 24 27 29 29 36 47 44 42 46 42 50 53 48 41 36 41 38 37 41 44 36 27 21 15 20 21 18 15 3 8 15 18 18 19 24 23
7 7 1 5 10 15 12 16 25 26 35 48 49 47 43 48 59 59 50 40 36 32 30 35 55 47 37 29 17 16 16 17 22 17 9 2 7 13 15 18 19 22 24
5 3 2 3 8 13 15 25 22 25 36 38 55 49 45 41 75 56 48 41 36 29 28 51 29 32 22 21 19 19 18 16 19 13 6 0 13 15 16 16 20 21 20
6 11 4 3 7 4 15 15 23 19 38 42 52 55 39 53 74 67 56 55 44 41 28 28 14 14 13 13 9 20 21 14 16 12 3 7 9 16 16 18 17 17 18
13 6 4 5 8 2 16 13 19 29 20 57 61 49 27 22 70 62 60 49 36 29 27 22 22 18 17 18 20 14 12 17 19 9 5 3 4 13 12 11 15 14 15
12 8 3 4 11 4 3 3 20 23 37 70 67 52 37 75 50 47 43 37 29 24 26 18 17 14 14 15 11 10 12 17 16 12 8 7 2 12 9 9 11 10 13
11 8 5 4 9 15 11 8 3 23 34 63 55 65 62 65 63 59 52 38 29 25 20 18 20 16 9 9 7 10 14 18 19 17 13 10 10 10 6 2 7 7 12
7 6 3 2 3 11 15 8 4 35 46 55 56 45 61 66 58 53 55 48 41 35 28 22 16 7 4 10 11 11 16 16 16 18 15 13 14 18 23 12 8 11 12
4 4 2 0 6 11 16 9 23 17 16 40 41 37 50 48 48 33 53 53 43 36 25 21 16 11 10 13 11 12 15 16 15 14 9 17 22 25 24 19 15 14 16
7 5 3 2 8 12 14 18 16 20 25 30 38 38 25 37 37 40 47 47 34 28 29 24 21 18 12 15 14 10 15 18 12 13 11 18 21 21 23 19 16 16 20
10 7 2 2 4 14 17 13 15 22 25 35 31 22 36 45 38 44 39 48 38 32 31 27 24 25 20 17 16 13 13 12 10 9 12 21 22 22 23 19 18 19 20
9 8 5 2 3 15 17 17 15 16 25 34 37 31 27 30 33 40 40 41 37 13 20 26 28 22 24 21 17 14 13 9 9 11 15 21 22 21 26 24 20 20 24
6 7 8 4 9 19 11 9 15 16 20 23 36 31 26 45 40 30 30 31 45 28 14 23 29 24 23 21 19 15 13 12 12 11 16 14 16 19 23 25 25 24 27
8 9 8 8 10 21 17 22 20 31 38 40 33 36 47 47 36 20 17 21 25 23 11 12 26 26 19 19 16 14 14 14 14 15 18 15 16 19 23 29 29 28 30
5 9 10 14 30 26 19 21 25 33 29 28 39 39 38 33 33 24 24 30 23 12 9 7 14 22 18 16 11 11 12 12 10 12 18 22 21 21 24 30 31 32 31
13 19 23 30 31 24 20 26 30 31 32 34 35 26 29 27 21 27 33 26 17 8 8 7 11 16 15 11 9 7 7 10 14 17 21 20 20 24 27 30 34 33 34
29 29 32 31 26 20 22 27 33 36 47 39 25 26 23 28 19 23 19 21 17 9 19 11 13 17 16 10 7 2 1 6 10 12 16 18 19 24 32 37 42 42 38
36 35 34 28 23 26 28 29 29 36 44 36 31 31 23 20 15 19 10 16 17 19 16 12 13 13 13 10 7 3 3 5 9 11 13 18 22 30 31 29 27 27 27
32 31 29 22 24 22 28 24 27 32 34 30 27 30 28 21 22 18 13 24 26 19 12 8 6 11 9 7 2 1 3 4 7 13 16 17 15 18 17 21 20 19 21
28 25 19 19 19 23 22 26 23 29 32 28 24 27 29 26 19 17 21 27 22 19 15 8 8 9 8 5 2 3 3 4 7 12 12 7 6 13 6 12 17 23 28
25 25 20 20 26 28 29 27 32 33 32 33 33 30 32 25 26 26 24 21 20 13 10 9 6 5 6 6 5 5 4 5 5 9 10 10 10 9 5 11 25 33 33
31 30 30 32 33 32 34 29 28 33 39 44 41 40 35 36 34 28 18 15 13 12 10 7 6 6 7 5 5 5 6 8 11 10 15 20 21 19 3 10 22 24 31
Wind_Direction_850mb
302 298 289 274 255 233 221 226 230 232 204 198 194 192 202 188 171 159 157 170 170 149 166 181 190 183 177 188 174 163 113 99 87 92 94 89 82 94 82 50 28 51 53
300 296 287 270 245 231 219 234 233 224 211 204 209 193 187 174 179 187 205 208 221 234 198 199 195 192 174 177 170 144 117 111 105 96 107 95 111 87 40 356 11 63 57
298 293 283 260 272 218 222 233 238 223 211 205 203 197 200 199 196 189 192 194 182 177 191 204 191 185 175 176 151 129 116 111 109 103 112 113 72 27 8 7 54 64 59
300 288 277 286 301 252 241 226 234 223 209 198 191 192 195 195 193 199 196 179 178 183 195 202 198 184 161 153 139 117 112 116 109 103 124 123 47 358 28 60 69 68 60
313 304 301 289 283 243 249 228 230 218 204 203 190 184 183 191 197 176 174 175 178 189 194 205 208 171 148 140 119 111 105 124 115 124 133 114 355 336 37 68 71 69 63
338 314 299 259 286 253 240 236 225 213 213 201 183 182 186 187 177 173 173 178 184 195 203 200 139 127 120 120 109 83 109 122 127 143 132 82 3 3 56 75 71 63 60
318 216 128 270 336 268 250 226 228 210 198 207 185 173 171 182 183 172 179 169 158 150 155 129 111 118 101 121 105 90 101 115 131 147 135 111 322 38 87 81 73 65 56
350 124 119 349 343 275 236 241 229 193 194 211 186 169 147 153 146 159 164 156 157 154 111 108 147 136 149 139 147 133 130 114 143 148 137 349 22 17 87 79 79 69 63
90 108 94 27 9 248 217 270 195 173 194 191 207 174 144 153 127 128 132 131 135 127 135 123 127 126 135 136 148 150 131 149 150 158 157 35 31 1 88 85 77 61 55
80 68 89 2 23 19 122 154 174 197 175 169 179 183 179 149 137 114 125 135 137 135 128 131 130 132 134 142 149 162 157 157 160 165 190 263 326 327 92 83 65 64 37
70 65 74 312 12 85 108 274 124 201 190 179 180 169 158 150 149 139 134 144 151 150 144 159 148 137 151 179 169 164 165 167 174 185 202 232 302 327 348 113 56 23 9
72 87 74 6 48 94 146 197 123 181 196 185 191 151 173 168 170 170 155 159 161 164 182 177 151 153 259 206 186 160 175 188 187 189 213 260 286 309 299 315 302 337 333
86 117 101 42 40 117 121 192 118 129 159 153 150 171 169 159 162 175 174 159 165 168 159 176 174 191 217 205 188 171 191 197 196 203 267 299 298 299 300 305 296 309 307
146 200 221 134 44 148 120 157 158 148 163 172 170 172 209 216 191 197 177 162 148 168 175 183 196 202 217 218 206 206 211 200 210 223 280 312 310 319 322 301 297 297 303
176 192 188 29 52 149 146 149 159 173 157 166 167 176 188 186 195 177 178 191 184 179 192 198 201 204 218 217 212 216 204 217 243 279 282 305 314 332 325 316 304 296 299
195 204 202 191 110 152 141 125 126 137 197 198 187 185 184 172 163 179 186 192 204 203 196 214 210 207 216 216 213 220 207 238 263 290 293 306 315 330 332 318 315 296 288
217 215 219 203 148 162 150 131 123 125 129 164 161 169 177 163 168 176 189 199 208 215 258 220 209 210 208 216 220 222 229 263 271 290 305 306 319 321 328 326 327 317 299
209 225 213 197 175 149 141 140 113 129 141 145 162 151 156 169 171 172 194 188 187 209 238 214 199 199 195 206 222 237 245 263 267 282 292 295 312 314 327 329 327 323 316
179 194 193 162 149 145 127 116 149 147 143 144 153 150 162 176 182 194 175 181 181 188 138 151 192 190 192 195 223 257 255 259 273 301 315 321 323 327 329 321 317 315 306
130 134 141 140 143 142 136 131 148 151 161 141 151 144 147 163 171 170 172 175 185 156 161 135 161 165 168 194 226 245 269 284 291 308 313 313 309 311 314 308 308 309 308
128 125 127 129 130 135 158 142 143 154 162 157 160 158 151 147 146 170 176 195 191 198 161 137 143 142 139 136 145 129 244 299 308 301 304 306 315 310 310 310 311 314 318
136 132 128 130 137 128 124 146 144 148 164 175 177 173 165 179 195 179 183 151 136 140 138 118 125 143 130 127 122 99 10 347 322 319 318 321 315 306 312 312 306 302 303
144 148 150 143 139 139 136 142 154 161 171 177 191 200 198 185 182 175 172 153 142 144 138 124 140 140 136 123 127 102 279 296 294 288 293 304 300 312 344 2 14 2 343
159 158 156 151 150 155 154 159 160 164 173 173 170 168 179 173 174 174 162 154 151 160 151 134 84 64 58 60 54 7 356 327 322 319 326 338 359 331 352 14 7 359 349
167 159 164 166 160 152 151 142 164 151 160 168 173 168 163 155 150 147 156 161 149 140 131 120 111 96 84 75 55 32 34 15 351 325 352 2 21 1 269 332 350 352 356
171 159 150 148 152 134 131 148 162 157 148 148 148 145 145 147 143 138 138 133 141 147 136 116 125 127 109 84 39 22 9 8 4 340 7 9 20 29 349 1 342 350 356